DCOKE EDDF-LFMD

Flight info

Callsign DCOKE
Flight time 1h 28m
Altitude 39000
Route ANEKI Y163 HERBI Y164 OLBEN DCT BIBAN DCT RONOP DCT VEVAR
Aircraft C25B/L-VGDW/C

Departure

Time 2026-05-06 10:36
Airport Frankfurt Main Airport (EDDF)

Arrival

Time 2026-05-06 12:05
Airport Cannes Mandelieu Airport (LFMD)
Time Latitude Longitude Altitude Speed Heading
2026-05-06 10:20 50.02249 8.53080 330 ft 0 kts 339°
2026-05-06 10:32 50.02244 8.53083 326 ft 2 kts 336°
2026-05-06 10:32 50.02229 8.53095 329 ft 2 kts 327°
2026-05-06 10:32 50.02217 8.53112 330 ft 2 kts 306°
2026-05-06 10:32 50.02212 8.53136 330 ft 2 kts 270°
2026-05-06 10:33 50.02214 8.53153 330 ft 1 kts 253°
2026-05-06 10:33 50.02214 8.53154 330 ft 0 kts 253°
2026-05-06 10:34 50.02207 8.53128 329 ft 9 kts 246°
2026-05-06 10:34 50.02152 8.53034 330 ft 14 kts 263°
2026-05-06 10:34 50.02146 8.52883 330 ft 15 kts 266°
2026-05-06 10:34 50.02202 8.52828 329 ft 15 kts
2026-05-06 10:35 50.02312 8.52816 327 ft 16 kts 319°
2026-05-06 10:35 50.02297 8.52657 330 ft 16 kts 248°
2026-05-06 10:35 50.02170 8.52606 330 ft 45 kts 179°
2026-05-06 10:35 50.01425 8.52620 361 ft 164 kts 179°
2026-05-06 10:36 50.00066 8.52660 957 ft 218 kts 180°
2026-05-06 10:36 49.98516 8.52726 1654 ft 225 kts 180°
2026-05-06 10:36 49.96950 8.52849 2370 ft 226 kts 180°
2026-05-06 10:36 49.95390 8.52969 3797 ft 230 kts 180°
2026-05-06 10:37 49.93742 8.53087 5500 ft 244 kts 180°
2026-05-06 10:37 49.92039 8.53196 7252 ft 252 kts 180°
2026-05-06 10:37 49.90272 8.53324 9152 ft 256 kts 180°
2026-05-06 10:37 49.88486 8.53444 11013 ft 257 kts 180°
2026-05-06 10:38 49.86701 8.53565 12906 ft 256 kts 180°
2026-05-06 10:38 49.84939 8.53688 14708 ft 251 kts 180°
2026-05-06 10:38 49.83177 8.53808 16266 ft 258 kts 179°
2026-05-06 10:38 49.81359 8.53928 17704 ft 265 kts 179°
2026-05-06 10:39 49.79487 8.54060 19007 ft 272 kts 179°
2026-05-06 10:39 49.77574 8.54103 20235 ft 278 kts 186°
2026-05-06 10:39 49.75626 8.53781 21401 ft 285 kts 188°
2026-05-06 10:39 49.73627 8.53532 22623 ft 290 kts 187°
2026-05-06 10:40 49.71596 8.53279 23726 ft 296 kts 188°
2026-05-06 10:40 49.69538 8.53011 24770 ft 297 kts 188°
2026-05-06 10:40 49.67471 8.52729 25814 ft 299 kts 188°
2026-05-06 10:40 49.65393 8.52456 26804 ft 301 kts 187°
2026-05-06 10:41 49.63307 8.52182 27880 ft 298 kts 187°
2026-05-06 10:41 49.61288 8.51919 29117 ft 291 kts 187°
2026-05-06 10:41 49.59284 8.51655 30238 ft 286 kts 187°
2026-05-06 10:41 49.57304 8.51390 31097 ft 285 kts 187°
2026-05-06 10:42 49.55329 8.51133 31911 ft 285 kts 187°
2026-05-06 10:42 49.53356 8.50870 32728 ft 284 kts 187°
2026-05-06 10:42 49.51382 8.50614 33540 ft 284 kts 187°
2026-05-06 10:42 49.49417 8.50355 34240 ft 284 kts 187°
2026-05-06 10:43 49.47438 8.50094 34840 ft 286 kts 187°
2026-05-06 10:43 49.45449 8.49836 35439 ft 287 kts 187°
2026-05-06 10:43 49.43450 8.49571 36027 ft 289 kts 187°
2026-05-06 10:44 49.39408 8.49042 37105 ft 295 kts 187°
2026-05-06 10:44 49.37357 8.48778 37688 ft 297 kts 188°
2026-05-06 10:44 49.35294 8.48507 38269 ft 298 kts 187°
2026-05-06 10:44 49.33221 8.48237 38741 ft 301 kts 188°
2026-05-06 10:45 49.31082 8.47954 38792 ft 318 kts 187°
2026-05-06 10:45 49.28813 8.47658 38802 ft 334 kts 187°
2026-05-06 10:45 49.26442 8.47354 38808 ft 350 kts 187°
2026-05-06 10:45 49.23963 8.47030 38806 ft 365 kts 187°
2026-05-06 10:46 49.21389 8.46695 38790 ft 377 kts 187°
2026-05-06 10:46 49.18765 8.46354 38801 ft 389 kts 187°
2026-05-06 10:46 49.16027 8.45999 38802 ft 399 kts 187°
2026-05-06 10:47 49.10373 8.45267 38804 ft 412 kts 187°
2026-05-06 10:47 49.04812 8.44212 38802 ft 392 kts 195°
2026-05-06 10:48 48.99570 8.42381 38801 ft 380 kts 195°
2026-05-06 10:48 48.94506 8.40621 38795 ft 371 kts 195°
2026-05-06 10:49 48.89512 8.38882 38793 ft 365 kts 195°
2026-05-06 10:49 48.84599 8.37183 38794 ft 360 kts 195°
2026-05-06 10:50 48.79736 8.35503 38793 ft 356 kts 195°
2026-05-06 10:50 48.74940 8.33776 38793 ft 352 kts 196°
2026-05-06 10:51 48.70201 8.32028 38792 ft 348 kts 196°
2026-05-06 10:51 48.65533 8.30336 38791 ft 346 kts 196°
2026-05-06 10:52 48.60874 8.28635 38796 ft 344 kts 196°
2026-05-06 10:52 48.56225 8.26950 38796 ft 342 kts 196°
2026-05-06 10:53 48.51594 8.25271 38799 ft 341 kts 196°
2026-05-06 10:53 48.46982 8.23600 38797 ft 340 kts 196°
2026-05-06 10:54 48.42414 8.21920 38802 ft 340 kts 196°
2026-05-06 10:54 48.37787 8.20237 38801 ft 339 kts 196°
2026-05-06 10:55 48.33230 8.18573 38805 ft 338 kts 196°
2026-05-06 10:55 48.28659 8.16913 38807 ft 338 kts 196°
2026-05-06 10:56 48.24111 8.15168 38803 ft 335 kts 201°
2026-05-06 10:56 48.19763 8.12675 38803 ft 335 kts 202°
2026-05-06 10:57 48.15401 8.10218 38810 ft 335 kts 202°
2026-05-06 10:57 48.11048 8.07749 38813 ft 334 kts 202°
2026-05-06 10:58 48.06724 8.05311 38814 ft 334 kts 202°
2026-05-06 10:58 48.02379 8.02861 38820 ft 333 kts 202°
2026-05-06 10:59 47.98040 8.00420 38819 ft 333 kts 202°
2026-05-06 10:59 47.93704 7.97984 38823 ft 332 kts 202°
2026-05-06 11:00 47.89378 7.95559 38826 ft 331 kts 202°
2026-05-06 11:00 47.85050 7.93138 38828 ft 332 kts 202°
2026-05-06 11:01 47.80756 7.90738 38833 ft 332 kts 202°
2026-05-06 11:01 47.76420 7.88320 38842 ft 334 kts 202°
2026-05-06 11:02 47.72048 7.85887 38840 ft 336 kts 202°
2026-05-06 11:02 47.67647 7.83442 38845 ft 337 kts 202°
2026-05-06 11:03 47.63245 7.81001 38850 ft 338 kts 202°
2026-05-06 11:03 47.58869 7.78578 38850 ft 337 kts 202°
2026-05-06 11:04 47.54485 7.76156 38851 ft 336 kts 202°
2026-05-06 11:04 47.50112 7.73741 38847 ft 335 kts 202°
2026-05-06 11:05 47.45732 7.71332 38852 ft 338 kts 202°
2026-05-06 11:05 47.41325 7.68908 38844 ft 337 kts 202°
2026-05-06 11:06 47.36937 7.66500 38844 ft 336 kts 202°
2026-05-06 11:06 47.32549 7.64084 38846 ft 338 kts 202°
2026-05-06 11:07 47.27929 7.62606 38841 ft 348 kts 188°
2026-05-06 11:07 47.23116 7.61972 38840 ft 346 kts 188°
2026-05-06 11:08 47.18334 7.61336 38834 ft 344 kts 188°
2026-05-06 11:08 47.13579 7.60712 38834 ft 342 kts 188°
2026-05-06 11:09 47.08877 7.60088 38831 ft 341 kts 189°
2026-05-06 11:09 47.04156 7.59468 38835 ft 340 kts 189°
2026-05-06 11:10 46.99446 7.58850 38834 ft 339 kts 189°
2026-05-06 11:10 46.94736 7.58229 38833 ft 340 kts 189°
2026-05-06 11:11 46.90060 7.57618 38835 ft 339 kts 189°
2026-05-06 11:11 46.85368 7.57003 38831 ft 338 kts 189°
2026-05-06 11:12 46.80693 7.56394 38833 ft 337 kts 189°
2026-05-06 11:12 46.76022 7.55785 38832 ft 336 kts 188°
2026-05-06 11:13 46.72147 7.55280 38836 ft 335 kts 189°
2026-05-06 11:13 46.67513 7.54679 38841 ft 334 kts 189°
2026-05-06 11:14 46.62130 7.53983 38841 ft 333 kts 189°
2026-05-06 11:14 46.58257 7.53480 38840 ft 333 kts 188°
2026-05-06 11:15 46.53627 7.52883 38846 ft 335 kts 189°
2026-05-06 11:15 46.49007 7.52286 38847 ft 335 kts 188°
2026-05-06 11:16 46.44361 7.51687 38845 ft 335 kts 189°
2026-05-06 11:16 46.39708 7.51088 38849 ft 336 kts 189°
2026-05-06 11:17 46.35044 7.50515 38853 ft 336 kts 188°
2026-05-06 11:17 46.30415 7.49879 38872 ft 336 kts 189°
2026-05-06 11:18 46.25761 7.49309 38873 ft 335 kts 189°
2026-05-06 11:18 46.21137 7.48707 38879 ft 333 kts 189°
2026-05-06 11:19 46.16517 7.48124 38880 ft 333 kts 189°
2026-05-06 11:19 46.11883 7.47533 38866 ft 334 kts 188°
2026-05-06 11:20 46.07275 7.46948 38877 ft 331 kts 189°
2026-05-06 11:20 46.02683 7.46364 38871 ft 331 kts 189°
2026-05-06 11:21 45.98117 7.45787 38872 ft 333 kts 189°
2026-05-06 11:21 45.93503 7.45199 38873 ft 332 kts 189°
2026-05-06 11:22 45.89051 7.43664 38875 ft 329 kts 199°
2026-05-06 11:22 45.84632 7.41892 38896 ft 331 kts 198°
2026-05-06 11:23 45.80169 7.40092 38883 ft 333 kts 198°
2026-05-06 11:23 45.75696 7.38304 38887 ft 333 kts 199°
2026-05-06 11:24 45.71229 7.36512 38874 ft 332 kts 199°
2026-05-06 11:24 45.66820 7.34748 38851 ft 331 kts 199°
2026-05-06 11:25 45.62419 7.32988 38864 ft 328 kts 199°
2026-05-06 11:25 45.58023 7.31230 38859 ft 327 kts 199°
2026-05-06 11:26 45.53654 7.29503 38859 ft 325 kts 199°
2026-05-06 11:26 45.49266 7.27755 38861 ft 328 kts 199°
2026-05-06 11:27 45.44876 7.26013 38854 ft 329 kts 199°
2026-05-06 11:27 45.42659 7.25133 38691 ft 334 kts 199°
2026-05-06 11:27 45.40392 7.24235 38403 ft 341 kts 199°
2026-05-06 11:27 45.38095 7.23324 38088 ft 345 kts 199°
2026-05-06 11:28 45.35763 7.22408 37774 ft 350 kts 199°
2026-05-06 11:28 45.33400 7.21471 37461 ft 353 kts 199°
2026-05-06 11:28 45.31023 7.20534 37156 ft 356 kts 199°
2026-05-06 11:28 45.28633 7.19592 36853 ft 357 kts 199°
2026-05-06 11:29 45.26240 7.18651 36563 ft 357 kts 199°
2026-05-06 11:29 45.23838 7.17703 36264 ft 359 kts 199°
2026-05-06 11:29 45.21432 7.16759 35972 ft 359 kts 199°
2026-05-06 11:29 45.19028 7.15814 35682 ft 357 kts 199°
2026-05-06 11:30 45.16634 7.14876 35397 ft 357 kts 198°
2026-05-06 11:30 45.14226 7.14012 35081 ft 357 kts 198°
2026-05-06 11:30 45.11828 7.13115 34794 ft 355 kts 198°
2026-05-06 11:30 45.09480 7.12226 34515 ft 353 kts 198°
2026-05-06 11:31 45.07083 7.11325 34228 ft 351 kts 198°
2026-05-06 11:31 45.04753 7.10462 33957 ft 350 kts 198°
2026-05-06 11:31 45.02395 7.09580 33637 ft 350 kts 198°
2026-05-06 11:31 45.00044 7.08698 33303 ft 347 kts 198°
2026-05-06 11:32 44.97711 7.07835 32943 ft 346 kts 198°
2026-05-06 11:32 44.95396 7.06970 32826 ft 341 kts 198°
2026-05-06 11:32 44.93124 7.06123 32814 ft 334 kts 198°
2026-05-06 11:33 44.88705 7.04478 32814 ft 323 kts 198°
2026-05-06 11:33 44.84413 7.02899 32796 ft 314 kts 199°
2026-05-06 11:34 44.80171 7.01813 32821 ft 314 kts 189°
2026-05-06 11:34 44.75790 7.02255 32814 ft 319 kts 177°
2026-05-06 11:35 44.71432 7.03300 32824 ft 317 kts 178°
2026-05-06 11:35 44.67074 7.04343 32819 ft 317 kts 178°
2026-05-06 11:36 44.62718 7.05373 32819 ft 318 kts 178°
2026-05-06 11:36 44.58344 7.06408 32823 ft 320 kts 178°
2026-05-06 11:37 44.53942 7.07456 32826 ft 321 kts 178°
2026-05-06 11:37 44.49552 7.08488 32829 ft 323 kts 178°
2026-05-06 11:38 44.45101 7.09549 32824 ft 324 kts 177°
2026-05-06 11:38 44.40685 7.10601 32819 ft 320 kts 178°
2026-05-06 11:39 44.36308 7.11624 32826 ft 319 kts 178°
2026-05-06 11:39 44.31920 7.12652 32832 ft 321 kts 178°
2026-05-06 11:40 44.27434 7.13702 32342 ft 337 kts 178°
2026-05-06 11:40 44.25092 7.14255 31939 ft 345 kts 178°
2026-05-06 11:40 44.22704 7.14835 31534 ft 352 kts 175°
2026-05-06 11:40 44.20316 7.15808 31141 ft 363 kts 168°
2026-05-06 11:41 44.17960 7.17170 30728 ft 369 kts 165°
2026-05-06 11:41 44.15594 7.18566 30354 ft 370 kts 166°
2026-05-06 11:41 44.13249 7.19924 29976 ft 370 kts 166°
2026-05-06 11:41 44.10876 7.21317 29541 ft 370 kts 166°
2026-05-06 11:42 44.08508 7.22711 29095 ft 369 kts 166°
2026-05-06 11:42 44.06149 7.24097 28664 ft 368 kts 166°
2026-05-06 11:42 44.03775 7.25478 28244 ft 368 kts 166°
2026-05-06 11:42 44.01407 7.26861 27807 ft 369 kts 166°
2026-05-06 11:43 43.99039 7.28251 27375 ft 369 kts 166°
2026-05-06 11:43 43.96667 7.29622 26966 ft 369 kts 166°
2026-05-06 11:43 43.94304 7.31011 26563 ft 369 kts 166°
2026-05-06 11:44 43.89581 7.33760 25771 ft 368 kts 167°
2026-05-06 11:44 43.87249 7.35108 25383 ft 368 kts 166°
2026-05-06 11:44 43.84890 7.36503 25002 ft 369 kts 165°
2026-05-06 11:44 43.82629 7.38286 24611 ft 378 kts 156°
2026-05-06 11:45 43.80504 7.40488 24230 ft 385 kts 149°
2026-05-06 11:45 43.78443 7.42843 23792 ft 383 kts 151°
2026-05-06 11:45 43.76349 7.45145 23324 ft 386 kts 151°
2026-05-06 11:45 43.74244 7.47469 22773 ft 388 kts 150°
2026-05-06 11:46 43.72150 7.49828 22237 ft 388 kts 149°
2026-05-06 11:46 43.70151 7.52366 21699 ft 396 kts 141°
2026-05-06 11:46 43.68410 7.55361 21178 ft 403 kts 133°
2026-05-06 11:46 43.66988 7.58749 20651 ft 411 kts 123°
2026-05-06 11:47 43.65914 7.62446 20124 ft 417 kts 115°
2026-05-06 11:47 43.64973 7.66215 19644 ft 414 kts 116°
2026-05-06 11:47 43.63986 7.69945 19162 ft 413 kts 116°
2026-05-06 11:47 43.63019 7.73683 18691 ft 412 kts 116°
2026-05-06 11:48 43.62062 7.77412 18218 ft 411 kts 115°
2026-05-06 11:48 43.61123 7.81084 17690 ft 410 kts 115°
2026-05-06 11:48 43.60138 7.84815 17157 ft 406 kts 117°
2026-05-06 11:48 43.58826 7.88186 16618 ft 395 kts 129°
2026-05-06 11:49 43.57178 7.91103 16100 ft 385 kts 139°
2026-05-06 11:49 43.55198 7.93527 15578 ft 377 kts 148°
2026-05-06 11:49 43.52993 7.95408 15045 ft 370 kts 158°
2026-05-06 11:49 43.50627 7.96745 14431 ft 366 kts 167°
2026-05-06 11:50 43.48157 7.97510 13821 ft 362 kts 175°
2026-05-06 11:50 43.45659 7.97690 13176 ft 358 kts 185°
2026-05-06 11:50 43.43192 7.97322 12514 ft 354 kts 194°
2026-05-06 11:50 43.40827 7.96429 11876 ft 351 kts 202°
2026-05-06 11:51 43.38614 7.95023 11247 ft 349 kts 211°
2026-05-06 11:51 43.36606 7.93174 10626 ft 346 kts 219°
2026-05-06 11:51 43.34818 7.90971 10008 ft 344 kts 226°
2026-05-06 11:51 43.33332 7.88404 9361 ft 343 kts 236°
2026-05-06 11:52 43.32159 7.85569 8711 ft 342 kts 245°
2026-05-06 11:52 43.31348 7.82546 8077 ft 340 kts 253°
2026-05-06 11:52 43.30919 7.79452 7447 ft 320 kts 262°
2026-05-06 11:52 43.30698 7.76491 6830 ft 305 kts 262°
2026-05-06 11:53 43.30468 7.73652 6215 ft 295 kts 263°
2026-05-06 11:53 43.30257 7.70888 5571 ft 288 kts 263°
2026-05-06 11:53 43.30049 7.68174 4935 ft 283 kts 263°
2026-05-06 11:53 43.29837 7.65502 4301 ft 280 kts 263°
2026-05-06 11:54 43.29634 7.62877 3901 ft 271 kts 263°
2026-05-06 11:54 43.29441 7.60409 3964 ft 249 kts 263°
2026-05-06 11:54 43.29254 7.58069 3989 ft 249 kts 263°
2026-05-06 11:54 43.29067 7.55687 3991 ft 253 kts 263°
2026-05-06 11:55 43.28881 7.53294 3993 ft 257 kts 263°
2026-05-06 11:55 43.28684 7.50852 3992 ft 257 kts 263°
2026-05-06 11:55 43.28493 7.48423 3991 ft 256 kts 264°
2026-05-06 11:55 43.28299 7.45998 3992 ft 255 kts 263°
2026-05-06 11:56 43.28103 7.43576 3991 ft 254 kts 263°
2026-05-06 11:56 43.27916 7.41165 3992 ft 254 kts 263°
2026-05-06 11:56 43.27719 7.38762 3991 ft 253 kts 264°
2026-05-06 11:56 43.27802 7.36370 3991 ft 252 kts 278°
2026-05-06 11:57 43.28067 7.34002 3992 ft 251 kts 275°
2026-05-06 11:57 43.28260 7.31617 3992 ft 251 kts 276°
2026-05-06 11:57 43.28515 7.29232 3987 ft 253 kts 276°
2026-05-06 11:57 43.28745 7.26843 3990 ft 252 kts 275°
2026-05-06 11:58 43.28980 7.24497 3990 ft 252 kts 276°
2026-05-06 11:58 43.29217 7.22105 3990 ft 253 kts 276°
2026-05-06 11:58 43.29448 7.19712 3989 ft 253 kts 276°
2026-05-06 11:58 43.29687 7.17306 3915 ft 256 kts 276°
2026-05-06 11:59 43.29919 7.14864 3790 ft 259 kts 276°
2026-05-06 11:59 43.30166 7.12402 3665 ft 260 kts 276°
2026-05-06 11:59 43.30404 7.09960 3540 ft 256 kts 276°
2026-05-06 11:59 43.30633 7.07579 3402 ft 253 kts 277°
2026-05-06 12:00 43.31121 7.05292 3272 ft 248 kts 290°
2026-05-06 12:00 43.31915 7.03207 3020 ft 245 kts 299°
2026-05-06 12:00 43.33023 7.01421 2742 ft 247 kts 311°
2026-05-06 12:00 43.34365 6.99942 2455 ft 250 kts 324°
2026-05-06 12:01 43.35929 6.98866 2157 ft 252 kts 333°
2026-05-06 12:01 43.37018 6.98299 2005 ft 253 kts 339°
2026-05-06 12:01 43.38746 6.97963 1996 ft 248 kts 350°
2026-05-06 12:01 43.40432 6.97663 1991 ft 241 kts 346°
2026-05-06 12:02 43.42074 6.97311 2006 ft 238 kts 348°
2026-05-06 12:02 43.43713 6.97047 2001 ft 237 kts 347°
2026-05-06 12:02 43.45304 6.96772 1998 ft 219 kts 348°
2026-05-06 12:02 43.46758 6.96522 1743 ft 199 kts 347°
2026-05-06 12:03 43.48043 6.96298 1463 ft 177 kts 345°
2026-05-06 12:03 43.49211 6.96082 1191 ft 161 kts 345°
2026-05-06 12:03 43.50285 6.95894 954 ft 144 kts 347°
2026-05-06 12:03 43.51223 6.95731 709 ft 131 kts 346°
2026-05-06 12:04 43.52121 6.95555 560 ft 129 kts 347°
2026-05-06 12:04 43.53046 6.95400 330 ft 135 kts 347°
2026-05-06 12:04 43.53980 6.95231 71 ft 134 kts 354°
2026-05-06 12:04 43.54801 6.95096 12 ft 93 kts 349°
2026-05-06 12:05 43.55134 6.95028 10 ft 33 kts 353°
2026-05-06 12:05 43.55355 6.94992 13 ft 15 kts
2026-05-06 12:05 43.55391 6.95116 13 ft 16 kts 114°
2026-05-06 12:05 43.55284 6.95169 13 ft 18 kts 172°
2026-05-06 12:06 43.55158 6.95192 13 ft 19 kts 172°
2026-05-06 12:06 43.55024 6.95216 13 ft 20 kts 173°
2026-05-06 12:06 43.54883 6.95240 13 ft 21 kts 173°
2026-05-06 12:06 43.54739 6.95266 13 ft 21 kts 173°
2026-05-06 12:07 43.54690 6.95293 13 ft 4 kts 79°
2026-05-06 12:07 43.54696 6.95349 13 ft 2 kts 83°
2026-05-06 12:07 43.54690 6.95365 13 ft 2 kts 167°
2026-05-06 12:07 43.54673 6.95368 13 ft 0 kts 172°